Location: Aufkirchen
(47.9603°N, 11.3653°E)
Time: 17:32:12
(UTC+01:00)

Transit 4A - Pass Details

Date: 02 December 2020
Orbit: 864 x 980 km, 66.8° (Epoch: 26 January)

Event Time Altitude Azimuth Distance (km) Brightness Sun altitude
Rises 11:09:03 0° 293° (WNW) 3,680 10.7 18.9°
Reaches altitude 10° 11:12:59 10° 316° (NW) 2,739 9.9 19.1°
Maximum altitude 11:16:28 15° 349° (N) 2,401 9.6 19.2°
Drops below altitude 10° 11:19:57 10° 23° (NNE) 2,735 9.9 19.3°
Sets 11:23:53 0° 46° (NE) 3,672 10.7 19.4°
